Location: Foligno
(42.9600°N, 12.7050°E)
Time: 16:14:20
(UTC+02:00)

ISS - Pass Details

Date: 31 May 2020
Orbit: 417 x 420 km, 51.6° (Epoch: 25 May)

Event Time Altitude Azimuth Distance (km) Brightness Sun altitude
Rises 22:23:40 0° 299° (WNW) 2,365 1.4 -14.9°
Reaches altitude 10° 22:25:49 10° 294° (WNW) 1,498 0.0 -15.1°
Maximum altitude 22:29:04 48° 219° (SW) 558 -3.3 -15.5°
Enters shadow 22:30:04 34° 170° (S) 702 -3.1 -15.6°
